Weather in Maltsevo

Russia / Kaliningrad Oblast     54°22′26″N   21°43′27″E
temp.,
°C
wind,
m/s
gust,
m/s
humid.,
%
clouds,
%
prec.,
mm/h
press.,
hPa
HPBL,
m
9 may, sun
sun923:00+2w22940 0.0 101921
02:00+1sw22926 0.0 102026
05:00+1s3491100 0.0 102157
08:00+6s588156 0.0 1021353
11:00+11s686183 0.0 10191132
14:00+14s7956100 0.0 10191740
17:00+11sse6147168 0.0 1017520
20:00+10sse5138132 0.0 1017305
10 may, mon
mon1023:00+9sse6158286 0.0 1018306
02:00+9sse6148493 0.0 1018286
05:00+8sse614886 0.0 1018249
08:00+12sse713795 0.0 1018387
11:00+17sse812665 0.0 1018746
14:00+19sse8126510 0.0 10171021
17:00+18sse913695 0.0 10171008
20:00+15sse7157799 0.0 1018636
11 may, tue
tue1123:00+13sse8177848 0.0 1018470
02:00+12sse71679100 0.0 1018424
05:00+11se7158332 0.0 1018365
08:00+14se9177787 0.0 1017557
11:00+18sse9156779 0.0 1017878
14:00+20se9146324 0.0 10161084
17:00+19se814653 0.0 10161028
20:00+15se816680 0.0 1016616
12 may, wed
wed1223:00+13se817620 0.0 1016536
02:00+11se717706 0.0 1016486
05:00+11se616790 0.0 1015431
08:00+15se715800 0.0 1015690
11:00+18se812650 0.0 10141157
14:00+20se711595 0.0 10131341
17:00+19se58675 0.0 10121388
20:00+15e6128897 0.6 1011456
13 may, thu
thu1323:00+9se716911 0.1 1013679
02:00+8ese513940 0.1 1012392
05:00+7e411969 0.0 1011370
08:00+10e698320 0.0 1010662
11:00+13e5765100 0.1 10091565
14:00+11e4684100 0.8 1008535
17:00+10ene239144 1.9 1007229
20:00+9nne239247 2.0 100638